Retour au catalogue

KIKU 3

ETS 4

ActifScienceHEO
NORAD 12295·PAYLOAD·🇯🇵 Japan

Lancé Feb 11, 1981 depuis Tanegashima Space Center

Loading…

Prochains Passages (prochaines 24 heures)

TLE

FraisSource: Space-Track

Époque: Sep 14, 2026, 01:12 UTC

1 12295U 81012A   26257.05031152  .00008167  00000-0  10495-2 0  9993
2 12295  28.4244 183.0590 4708975 304.3719  19.6335  6.12591159646639

Suivez KIKU 3 en temps réel avec AllMySat

Download on the App Store